Regional Weather Roundup
Issued by NWS Jackson, KY

Home | Current Version | Previous Version | Graphics & Text | Print | Product List | Glossary On
Versions: 1 2 3 4 5 6 7 8 9 10 11 12 13 14 15 16 17 18 19 20 21 22 23 24 25 26 27 28 29 30 31 32 33 34 35 36 37 38 39 40 41 42 43 44 45 46 47 48 49 50
000
ASUS43 KJKL 240910
RWRJKL

EAST KENTUCKY HOURLY WEATHER ROUNDUP
NATIONAL WEATHER SERVICE JACKSON KY
500 AM EDT SAT JUN 24 2017

NOTE: "FAIR" INDICATES FEW OR NO CLOUDS BELOW 12,000 FEET WITH
NO SIGNIFICANT WEATHER AND/OR OBSTRUCTIONS TO VISIBILITY.

* THESE REPORTS ARE NOT UNDER NWS QUALITY CONTROL AND MAY NOT
  REPORT WEATHER SUCH AS PRECIPITATION AND FOG.

KYZ079-080-083-085-087-088-110-112-115-119-120-241000
...EASTERN KENTUCKY...

CITY           SKY/WX    TMP DP  RH WIND       PRES   REMARKS
JACKSON        FOG       66  65  96 CALM      29.92R VSB 3/4
LONDON         CLOUDY    68  66  93 CALM      29.92R
SOMERSET*      CLOUDY    68  68 100 CALM      29.93R
MONTICELLO*    CLOUDY    72  70  94 N13       29.93R
WILLIAMSBURG*  CLOUDY    68  68 100 CALM      29.92R
MIDDLESBORO*   CLOUDY    67  67 100 CALM      29.94S
HARLAN APT*    CLOUDY    64  63  94 CALM      29.95R
PIKE CO APT*   CLOUDY    64  64 100 S5        29.92S
BIG SANDY APT* CLOUDY    65  65 100 CALM      29.92R
MOREHEAD APT*  CLOUDY    66  66 100 CALM      29.91S FOG
$$

KYZ035-036-041-042-044-050-067-078-099-241000
...CENTRAL KENTUCKY...

CITY           SKY/WX    TMP DP  RH WIND       PRES   REMARKS
MT STERLING*   CLOUDY    66  66 100 CALM      29.92R
FLEMING/MASON* FOG       64  64 100 W6        29.90S VSB<1/4
DANVILLE*      PTCLDY    64  64 100 N5        29.93S
LEXINGTON      FOG       66  64  93 NW3       29.91S VSB 1/4
FRANKFORT      FOG       64  61  90 CALM      29.90R VSB 1/2
LOUISVILLE     CLEAR     66  65  96 W3        29.90S
LEBANON*         N/A    N/A N/A N/A MISG        N/A
GLASGOW*       FOG      N/A N/A N/A CALM      29.93R VSB 1/4
BOWLING GREEN  CLEAR     68  68 100 CALM      29.94R
$$

KYZ091>093-OHZ055-061-077-WVZ005-015-034-035-042-241000
...SOUTHERN OHIO/WEST VIRGINIA...

CITY           SKY/WX    TMP DP  RH WIND       PRES   REMARKS
COVINGTON      PTCLDY    62  62 100 W6        29.89S FOG
COLUMBUS       CLEAR     63  63 100 S3        29.84R
DAYTON         PTCLDY    61  58  90 W10       29.87R
WILMINGTON     FOG       61  61 100 SW6       29.87S VSB 3/4
HUNTINGTON     CLOUDY    67  65  93 CALM      29.89F
CHARLESTON     LGT RAIN  66  64  93 SW10      29.90R FOG
PINEVILLE*     CLOUDY    64  63  95 MISG      29.99R
BECKLEY        CLOUDY    62  61  96 W6        29.95R
BLUEFIELD      CLOUDY    60  58  92 W7        29.98R
LOGAN CO APT*  CLOUDY    64  63  94 CALM      29.93R
$$

VAZ002-007-008-TNZ017-027-036-066-071-241000
...SOUTHWEST VIRGINIA/EAST TENNESSEE...

CITY           SKY/WX    TMP DP  RH WIND       PRES   REMARKS
WISE*          MOCLDY    61  61 100 CALM      30.00S
JONESVILLE*    CLOUDY    64  64 100 CALM      29.97S
ABINGDON*      CLOUDY    67  67 100 W5        29.97R
BRISTOL        MOCLDY    65  64  97 CALM      29.94S
MORRISTOWN*    CLOUDY    68  68 100 CALM      29.93S
SEVIERVILLE*   PTSUNNY   70  70 100 CALM      29.92R
KNOXVILLE      CLOUDY    72  71  97 SW8       29.92R
LAFOLLETTE*    CLOUDY    70  68  94 NE6       29.95S
OAK RIDGE      CLOUDY    73  71  93 SW3       29.92S
CROSSVILLE     CLOUDY    71  70  96 SW6       29.97R
NASHVILLE      MOCLDY    74  67  78 NW6       29.94R
$$

...KEY TO REMARKS...
VSB - VISIBILITY IN MILES
WCI - WIND CHILL INDEX
HX  - HEAT INDEX

$$



USA.gov is the U.S. government's official web portal to all federal, state and local government web resources and services.